Regional Weather Roundup
Issued by NWS Northern Indiana

Home | Current Version | Previous Version | Graphics & Text | Print | Product List | Glossary On
Versions: 1 2 3 4 5 6 7 8 9 10 11 12 13 14 15 16 17 18 19 20 21 22 23 24 25 26 27 28 29 30 31 32 33 34 35 36 37 38 39 40 41 42 43 44 45 46 47 48 49 50
588
ASUS43 KIWX 232200
RWRIWX

KIWX WEATHER ROUNDUP
NATIONAL WEATHER SERVICE NORTHERN INDIANA
600 PM EDT THU MAR 23 2017

NOTE: "FAIR" INDICATES FEW OR NO CLOUDS BELOW 12,000 FEET WITH NO
SIGNIFICANT WEATHER AND/OR OBSTRUCTIONS TO VISIBILITY.

* THESE STATIONS ARE NOT UNDER NWS QUALITY CONTROL. THEY ALSO MAY NOT
  REPORT WEATHER SUCH AS PRECIPITATION OR FOG.

INZ001>027-232300-
NORTHERN INDIANA

CITY           SKY/WX    TMP DP  RH WIND       PRES   REMARKS
GARY*          CLOUDY    50  21  32 SE10      30.18F
KNOX*          CLOUDY    46   1  15 SE16      30.21F
SOUTH BEND     CLOUDY    46  22  38 SE15      30.22F
ELKHART*       SUNNY     46  19  34 SE13      30.23F
GOSHEN         PTSUNNY   46  20  35 S15G21    30.23F
MONTICELLO*    CLOUDY    51  22  31 S8G16     30.20F
ANGOLA*        MOSUNNY   46  25  42 SE13      30.25F
FORT WAYNE     PTSUNNY   48  23  37 S14       30.26F
PERU/GRISSOM   CLOUDY    51  27  39 SE9       30.21F

$$
INZ028>050-232300-
CENTRAL INDIANA

CITY           SKY/WX    TMP DP  RH WIND       PRES   REMARKS
LAFAYETTE      CLOUDY    52  25  35 SE9       30.20F
KOKOMO*        CLOUDY    51  31  46 SE13      30.23F
MUNCIE*        PTSUNNY   53  24  32 SE12      30.24F
INDIANAPOLIS   CLOUDY    55  24  30 SE9       30.22F

$$
MIZ043>046-050>051-056>058-064>065-071>073-077>080-232300-
SOUTHWEST LOWER MICHIGAN

CITY           SKY/WX    TMP DP  RH WIND       PRES   REMARKS
BATTLE CREEK   CLOUDY    47  16  29 S10       30.24F
BENTON HARBOR  CLOUDY    46  19  34 SE10G21   30.21F
COLDWATER*     CLOUDY    46  16  30 S10       30.24F
HILLSDALE*     CLOUDY    45  14  29 SE13G18   30.24F
HOLLAND        PTSUNNY   47  12  24 SE15      30.20F
GRAND RAPIDS   PTSUNNY   48   9  20 S14       30.22F
KALAMAZOO      CLOUDY    47  15  27 SE13G21   30.23F
STURGIS*       PTSUNNY   47  21  35 S14       30.23F
THREE RIVERS*  PTSUNNY   45  19  34 SE9       30.23F

$$
OHZ001>008-015>018-024>025-232300-
NORTHWEST OHIO

CITY           SKY/WX    TMP DP  RH WIND       PRES   REMARKS
DEFIANCE       MOSUNNY   48  14  25 SE16      30.27F
FINDLAY        MOSUNNY   51  11  20 S12       30.28F
TOLEDO EXPRESS PTSUNNY   49   9  19 SE7       30.29F
TOLEDO METCALF SUNNY     44  27  51 E10       30.32F
LIMA           CLOUDY    51  18  27 S13       30.27F

$$
AND FOR LAKE MICHIGAN COASTAL AND OPEN LAKE BUOY OBSERVATIONS

STATION/POSITION TEMP    WIND        PRES    VSBY  WAVE
                 AIR SEA DIR/SP/G                  HT/PER
                 (F)     (DEG/KT/KT) (MB)    (MI)  (FT/S)
CALUMET HARBOR    47     150/ 12/ 18 1021.3F
MICHIGAN CITY     47     150/ 12/ 18   N/A
BURNS HARBOR      48     170/ 11/ 18 1022.7F

$$
&&




USA.gov is the U.S. government's official web portal to all federal, state and local government web resources and services.